TimeAKDT,TemperatureF,Dew PointF,Humidity,Sea Level PressureIn,VisibilityMPH,Wind Direction,Wind SpeedMPH,Gust SpeedMPH,PrecipitationIn,Events,Conditions,WindDirDegrees,DateUTC
12:16 AM,32.0,28.4,87,29.72,10.0,NNW,4.6,-,N/A,,Mostly Cloudy,340,2012-10-19 08:16:00
12:36 AM,32.0,28.4,87,29.72,10.0,North,3.5,-,N/A,,Partly Cloudy,10,2012-10-19 08:36:00
12:56 AM,30.2,28.4,93,29.71,10.0,NNW,4.6,-,N/A,,Partly Cloudy,330,2012-10-19 08:56:00
1:16 AM,32.0,28.4,87,29.70,10.0,NNW,4.6,-,N/A,,Clear,330,2012-10-19 09:16:00
1:36 AM,32.0,26.6,80,29.70,10.0,NW,4.6,-,N/A,,Clear,320,2012-10-19 09:36:00
1:56 AM,30.2,26.6,86,29.69,10.0,NW,5.8,-,N/A,,Clear,320,2012-10-19 09:56:00
2:16 AM,32.0,28.4,87,29.68,10.0,NW,5.8,-,N/A,,Clear,320,2012-10-19 10:16:00
2:36 AM,33.8,28.4,81,29.68,10.0,NNW,5.8,-,N/A,,Clear,340,2012-10-19 10:36:00
2:56 AM,32.0,28.4,87,29.67,10.0,NNW,3.5,-,N/A,,Scattered Clouds,340,2012-10-19 10:56:00
3:16 AM,32.0,28.4,87,29.67,10.0,NNW,3.5,-,N/A,,Partly Cloudy,330,2012-10-19 11:16:00
3:36 AM,32.0,26.6,80,29.67,10.0,NNW,4.6,-,N/A,,Clear,330,2012-10-19 11:36:00
3:56 AM,32.0,28.4,87,29.66,10.0,Calm,Calm,-,N/A,,Clear,0,2012-10-19 11:56:00
4:16 AM,30.2,26.6,86,29.66,10.0,NNW,3.5,-,N/A,,Clear,340,2012-10-19 12:16:00
4:36 AM,30.2,24.8,80,29.66,10.0,Calm,Calm,-,N/A,,Clear,0,2012-10-19 12:36:00
4:56 AM,28.4,24.8,86,29.66,10.0,Calm,Calm,-,N/A,,Clear,0,2012-10-19 12:56:00
5:16 AM,28.4,24.8,86,29.65,10.0,Calm,Calm,-,N/A,,Clear,0,2012-10-19 13:16:00
5:36 AM,28.4,24.8,86,29.65,3.0,North,-9999.0,-,N/A,,Clear,0,2012-10-19 13:36:00
5:56 AM,28.4,23.0,80,29.65,10.0,Calm,Calm,-,N/A,,Clear,0,2012-10-19 13:56:00
6:16 AM,26.6,21.2,80,29.65,10.0,NNW,5.8,-,N/A,,Clear,330,2012-10-19 14:16:00
6:36 AM,26.6,21.2,80,29.65,10.0,SE,4.6,-,N/A,,Clear,130,2012-10-19 14:36:00
6:56 AM,26.6,23.0,86,29.66,10.0,Calm,Calm,-,N/A,,Clear,0,2012-10-19 14:56:00
7:16 AM,28.4,24.8,86,29.65,10.0,NNW,5.8,-,N/A,,Clear,340,2012-10-19 15:16:00
7:36 AM,30.2,26.6,86,29.66,10.0,Calm,Calm,-,N/A,,Clear,0,2012-10-19 15:36:00
7:56 AM,26.6,23.0,86,29.66,10.0,Calm,Calm,-,N/A,,Clear,0,2012-10-19 15:56:00
8:16 AM,32.0,26.6,80,29.66,10.0,NNW,5.8,-,N/A,,Clear,330,2012-10-19 16:16:00
8:36 AM,30.2,23.0,75,29.66,10.0,NNW,4.6,-,N/A,,Clear,330,2012-10-19 16:36:00
8:56 AM,30.2,24.8,80,29.66,10.0,NNW,3.5,-,N/A,,Clear,330,2012-10-19 16:56:00
9:16 AM,28.4,23.0,80,29.66,10.0,Calm,Calm,-,N/A,,Clear,0,2012-10-19 17:16:00
9:36 AM,30.2,24.8,80,29.66,10.0,NNW,5.8,-,N/A,,Clear,330,2012-10-19 17:36:00
9:56 AM,33.8,28.4,81,29.66,10.0,NNW,9.2,-,N/A,,Clear,330,2012-10-19 17:56:00
10:16 AM,35.6,28.4,75,29.66,10.0,NNW,11.5,-,N/A,,Clear,330,2012-10-19 18:16:00
10:36 AM,37.4,30.2,75,29.66,10.0,NW,12.7,17.3,N/A,,Clear,320,2012-10-19 18:36:00
10:56 AM,37.4,30.2,75,29.66,10.0,NW,10.4,-,N/A,,Clear,320,2012-10-19 18:56:00
11:16 AM,37.4,30.2,75,29.67,10.0,NW,8.1,-,N/A,,Clear,320,2012-10-19 19:16:00
11:36 AM,39.2,32.0,75,29.67,10.0,NW,6.9,-,N/A,,Clear,310,2012-10-19 19:36:00
11:56 AM,42.8,32.0,66,29.66,10.0,WNW,8.1,-,N/A,,Clear,300,2012-10-19 19:56:00
12:16 PM,42.8,30.2,61,29.66,10.0,WNW,8.1,-,N/A,,Partly Cloudy,300,2012-10-19 20:16:00
12:36 PM,44.6,30.2,57,29.66,10.0,WNW,8.1,-,N/A,,Mostly Cloudy,300,2012-10-19 20:36:00
12:56 PM,44.6,28.4,53,29.66,10.0,NW,4.6,-,N/A,,Overcast,310,2012-10-19 20:56:00
1:16 PM,44.6,26.6,49,29.66,10.0,NW,8.1,-,N/A,,Overcast,310,2012-10-19 21:16:00
1:36 PM,44.6,26.6,49,29.66,10.0,WNW,4.6,-,N/A,,Overcast,290,2012-10-19 21:36:00
1:56 PM,44.6,26.6,49,29.67,10.0,WNW,6.9,-,N/A,,Overcast,300,2012-10-19 21:56:00
2:16 PM,44.6,26.6,49,29.67,10.0,WNW,6.9,-,N/A,,Overcast,300,2012-10-19 22:16:00
2:36 PM,44.6,24.8,46,29.67,10.0,WSW,6.9,-,N/A,,Overcast,250,2012-10-19 22:36:00
2:56 PM,44.6,24.8,46,29.67,10.0,WNW,9.2,-,N/A,,Overcast,290,2012-10-19 22:56:00
3:16 PM,44.6,23.0,43,29.67,10.0,NW,8.1,-,N/A,,Overcast,310,2012-10-19 23:16:00
3:36 PM,44.6,21.2,39,29.68,10.0,NW,9.2,-,N/A,,Mostly Cloudy,320,2012-10-19 23:36:00
3:56 PM,44.6,21.2,39,29.68,10.0,North,6.9,-,N/A,,Mostly Cloudy,10,2012-10-19 23:56:00
4:16 PM,42.8,21.2,42,29.68,10.0,North,13.8,24.2,N/A,,Mostly Cloudy,350,2012-10-20 00:16:00
4:36 PM,42.8,21.2,42,29.68,10.0,North,6.9,-,N/A,,Overcast,360,2012-10-20 00:36:00
4:56 PM,42.8,21.2,42,29.69,10.0,North,4.6,-,N/A,,Mostly Cloudy,360,2012-10-20 00:56:00
5:16 PM,42.8,21.2,42,29.69,10.0,NNE,4.6,-,N/A,,Overcast,20,2012-10-20 01:16:00
5:36 PM,42.8,21.2,42,29.69,10.0,NNW,4.6,-,N/A,,Overcast,340,2012-10-20 01:36:00
5:56 PM,42.8,19.4,39,29.69,10.0,NNW,8.1,-,N/A,,Overcast,340,2012-10-20 01:56:00
6:16 PM,42.8,19.4,39,29.70,10.0,North,6.9,-,N/A,,Mostly Cloudy,10,2012-10-20 02:16:00
6:36 PM,42.8,19.4,39,29.70,10.0,North,12.7,19.6,N/A,,Scattered Clouds,350,2012-10-20 02:36:00
6:56 PM,42.8,19.4,39,29.70,10.0,NW,8.1,-,N/A,,Partly Cloudy,310,2012-10-20 02:56:00
7:16 PM,41.0,19.4,42,29.71,10.0,NNW,5.8,-,N/A,,Mostly Cloudy,330,2012-10-20 03:16:00
7:36 PM,39.2,21.2,49,29.71,10.0,NNW,8.1,-,N/A,,Overcast,340,2012-10-20 03:36:00
7:56 PM,39.2,19.4,45,29.71,10.0,NNW,13.8,19.6,N/A,,Overcast,340,2012-10-20 03:56:00
8:16 PM,41.0,19.4,42,29.72,10.0,North,10.4,20.7,N/A,,Overcast,360,2012-10-20 04:16:00
8:36 PM,41.0,17.6,39,29.73,10.0,North,11.5,17.3,N/A,,Scattered Clouds,360,2012-10-20 04:36:00
8:56 PM,41.0,17.6,39,29.73,10.0,North,11.5,-,N/A,,Partly Cloudy,360,2012-10-20 04:56:00
9:16 PM,41.0,17.6,39,29.73,10.0,North,9.2,18.4,N/A,,Clear,360,2012-10-20 05:16:00
9:36 PM,39.2,17.6,42,29.74,10.0,North,9.2,-,N/A,,Clear,350,2012-10-20 05:36:00
9:56 PM,39.2,17.6,42,29.74,10.0,NW,10.4,-,N/A,,Clear,320,2012-10-20 05:56:00
10:16 PM,35.6,21.2,56,29.75,10.0,NNW,10.4,-,N/A,,Clear,330,2012-10-20 06:16:00
10:36 PM,35.6,21.2,56,29.75,10.0,NNW,9.2,-,N/A,,Clear,330,2012-10-20 06:36:00
10:56 PM,37.4,19.4,48,29.76,10.0,NNW,12.7,-,N/A,,Clear,340,2012-10-20 06:56:00
11:16 PM,37.4,19.4,48,29.76,10.0,North,11.5,18.4,N/A,,Clear,350,2012-10-20 07:16:00
11:36 PM,37.4,19.4,48,29.77,10.0,NNW,10.4,-,N/A,,Clear,340,2012-10-20 07:36:00
11:56 PM,37.4,19.4,48,29.77,10.0,NW,9.2,-,N/A,,Scattered Clouds,320,2012-10-20 07:56:00